• In Belarus
  • List of Countries
  • For 7 days
  • Water Temperature
  • Weather Map
  • Weather Widgets
  • user-avatar
    Login

    Hourly Weather Herāt

    Today, 16 September, Monday

    Time Temperature Precipitation Wind Pressure Humidity
    00:00 +14°C° 0 mm 3 mps 681 mmHg 41%
    01:00 +13°C° 0 mm 3 mps 680 mmHg 44%
    02:00 +13°C° 0 mm 3 mps 680 mmHg 46%
    03:00 +14°C° 0 mm 2 mps 680 mmHg 48%
    04:00 +13°C° 0 mm 2 mps 680 mmHg 50%
    05:00 +15°C° 0 mm 2 mps 681 mmHg 43%
    06:00 +17°C° 0 mm 2 mps 681 mmHg 36%
    07:00 +19°C° 0 mm 3 mps 682 mmHg 29%
    08:00 +22°C° 0 mm 4 mps 683 mmHg 24%
    09:00 +24°C° 0 mm 6 mps 683 mmHg 20%
    10:00 +28°C° 0 mm 8 mps 683 mmHg 15%
    11:00 +29°C° 0 mm 8 mps 683 mmHg 14%
    12:00 +31°C° 0 mm 9 mps 683 mmHg 14%
    13:00 +31°C° 0 mm 10 mps 682 mmHg 13%
    14:00 +31°C° 0 mm 11 mps 682 mmHg 14%
    15:00 +29°C° 0 mm 11 mps 682 mmHg 14%
    16:00 +28°C° 0 mm 12 mps 681 mmHg 15%
    17:00 +26°C° 0 mm 10 mps 681 mmHg 16%
    18:00 +23°C° 0 mm 8 mps 681 mmHg 18%
    19:00 +20°C° 0 mm 6 mps 681 mmHg 19%
    20:00 +19°C° 0 mm 5 mps 681 mmHg 21%
    21:00 +17°C° 0 mm 5 mps 681 mmHg 23%
    22:00 +17°C° 0 mm 4 mps 681 mmHg 25%
    23:00 +15°C° 0 mm 4 mps 681 mmHg 27%

    Tomorrow, 17 September, Tuesday

    Time Temperature Precipitation Wind Pressure Humidity
    00:00 +14°C° 0 mm 3 mps 680 mmHg 29%
    01:00 +13°C° 0 mm 3 mps 680 mmHg 30%
    02:00 +13°C° 0 mm 3 mps 679 mmHg 31%
    03:00 +12°C° 0 mm 3 mps 679 mmHg 33%
    04:00 +12°C° 0 mm 3 mps 679 mmHg 34%
    05:00 +13°C° 0 mm 3 mps 679 mmHg 30%
    06:00 +16°C° 0 mm 3 mps 680 mmHg 27%
    07:00 +18°C° 0 mm 3 mps 681 mmHg 23%
    08:00 +21°C° 0 mm 3 mps 681 mmHg 19%
    09:00 +24°C° 0 mm 3 mps 681 mmHg 16%
    10:00 +27°C° 0 mm 3 mps 681 mmHg 12%
    11:00 +29°C° 0 mm 4 mps 681 mmHg 10%
    12:00 +32°C° 0 mm 5 mps 681 mmHg 8%
    13:00 +34°C° 0 mm 6 mps 680 mmHg 7%
    14:00 +34°C° 0 mm 7 mps 680 mmHg 7%
    15:00 +33°C° 0 mm 8 mps 680 mmHg 7%
    16:00 +33°C° 0 mm 9 mps 679 mmHg 8%
    17:00 +28°C° 0 mm 7 mps 679 mmHg 11%
    18:00 +23°C° 0 mm 5 mps 678 mmHg 15%
    19:00 +20°C° 0 mm 4 mps 678 mmHg 18%
    20:00 +19°C° 0 mm 3 mps 678 mmHg 18%
    21:00 +18°C° 0 mm 3 mps 677 mmHg 18%
    22:00 +17°C° 0 mm 3 mps 677 mmHg 18%
    23:00 +16°C° 0 mm 2 mps 677 mmHg 20%

    Day after tomorrow, 18 September, Wednesday

    Time Temperature Precipitation Wind Pressure Humidity
    00:00 +16°C° 0 mm 2 mps 677 mmHg 22%
    01:00 +15°C° 0 mm 2 mps 677 mmHg 24%
    02:00 +15°C° 0 mm 1 mps 676 mmHg 26%
    03:00 +14°C° 0 mm 1 mps 676 mmHg 29%
    04:00 +14°C° 0 mm 1 mps 676 mmHg 31%
    05:00 +16°C° 0 mm 1 mps 677 mmHg 25%
    06:00 +20°C° 0 mm 1 mps 678 mmHg 20%
    07:00 +22°C° 0 mm 1 mps 679 mmHg 14%
    08:00 +26°C° 0 mm 1 mps 679 mmHg 11%
    09:00 +29°C° 0 mm 1 mps 680 mmHg 8%
    10:00 +32°C° 0 mm 1 mps 681 mmHg 5%
    11:00 +36°C° 0 mm 3 mps 681 mmHg 4%
    12:00 +38°C° 0 mm 4 mps 681 mmHg 3%
    13:00 +41°C° 0 mm 6 mps 681 mmHg 2%
    14:00 +40°C° 0 mm 8 mps 681 mmHg 3%
    15:00 +39°C° 0 mm 9 mps 680 mmHg 3%
    16:00 +39°C° 0 mm 11 mps 680 mmHg 3%
    17:00 +36°C° 0 mm 10 mps 680 mmHg 4%
    18:00 +32°C° 0 mm 8 mps 680 mmHg 5%
    19:00 +27°C° 0 mm 7 mps 680 mmHg 7%
    20:00 +26°C° 0 mm 6 mps 680 mmHg 8%
    21:00 +25°C° 0 mm 4 mps 680 mmHg 8%
    22:00 +24°C° 0 mm 3 mps 680 mmHg 9%
    23:00 +22°C° 0 mm 3 mps 680 mmHg 10%

    19 September, Thursday

    Time Temperature Precipitation Wind Pressure Humidity
    00:00 +21°C° 0 mm 3 mps 680 mmHg 12%
    01:00 +21°C° 0 mm 2 mps 679 mmHg 13%
    02:00 +20°C° 0 mm 2 mps 679 mmHg 14%
    03:00 +20°C° 0 mm 2 mps 679 mmHg 15%
    04:00 +19°C° 0 mm 2 mps 679 mmHg 17%
    05:00 +21°C° 0 mm 2 mps 680 mmHg 15%
    06:00 +24°C° 0 mm 2 mps 680 mmHg 14%
    07:00 +25°C° 0 mm 2 mps 681 mmHg 12%
    08:00 +29°C° 0 mm 3 mps 681 mmHg 11%
    09:00 +33°C° 0 mm 4 mps 682 mmHg 10%
    10:00 +36°C° 0 mm 4 mps 682 mmHg 9%
    11:00 +39°C° 0 mm 6 mps 682 mmHg 8%
    12:00 +40°C° 0 mm 8 mps 681 mmHg 8%
    13:00 +43°C° 0 mm 10 mps 681 mmHg 7%
    14:00 +42°C° 0 mm 10 mps 681 mmHg 8%
    15:00 +40°C° 0 mm 10 mps 680 mmHg 8%
    16:00 +39°C° 0 mm 10 mps 680 mmHg 9%
    17:00 +35°C° 0 mm 9 mps 680 mmHg 10%
    18:00 +32°C° 0 mm 7 mps 680 mmHg 11%
    19:00 +29°C° 0 mm 5 mps 680 mmHg 12%
    20:00 +28°C° 0 mm 5 mps 680 mmHg 13%
    21:00 +27°C° 0 mm 4 mps 680 mmHg 14%
    22:00 +26°C° 0 mm 4 mps 680 mmHg 15%
    23:00 +25°C° 0 mm 4 mps 679 mmHg 17%

    20 September, Friday

    Time Temperature Precipitation Wind Pressure Humidity
    00:00 +25°C° 0 mm 4 mps 679 mmHg 19%
    01:00 +23°C° 0 mm 4 mps 679 mmHg 21%
    02:00 +24°C° 0 mm 3 mps 679 mmHg 22%
    03:00 +22°C° 0 mm 3 mps 679 mmHg 23%
    04:00 +23°C° 0 mm 2 mps 679 mmHg 24%
    05:00 +24°C° 0 mm 2 mps 679 mmHg 22%
    06:00 +26°C° 0 mm 2 mps 680 mmHg 20%
    07:00 +27°C° 0 mm 2 mps 680 mmHg 18%
    08:00 +30°C° 0 mm 4 mps 681 mmHg 15%
    09:00 +34°C° 0 mm 5 mps 681 mmHg 13%
    10:00 +38°C° 0 mm 7 mps 682 mmHg 11%
    11:00 +38°C° 0 mm 8 mps 681 mmHg 10%
    12:00 +39°C° 0 mm 9 mps 681 mmHg 9%
    13:00 +39°C° 0 mm 11 mps 680 mmHg 9%
    14:00 +39°C° 0 mm 11 mps 680 mmHg 9%
    15:00 +38°C° 0 mm 11 mps 680 mmHg 9%
    16:00 +38°C° 0 mm 12 mps 680 mmHg 9%
    17:00 +36°C° 0 mm 11 mps 679 mmHg 11%
    18:00 +32°C° 0 mm 9 mps 679 mmHg 14%
    19:00 +29°C° 0 mm 8 mps 679 mmHg 16%
    20:00 +28°C° 0 mm 7 mps 679 mmHg 18%
    21:00 +26°C° 0 mm 5 mps 679 mmHg 20%
    22:00 +25°C° 0 mm 4 mps 678 mmHg 21%
    23:00 +24°C° 0 mm 3 mps 678 mmHg 22%

    21 September, Saturday

    Time Temperature Precipitation Wind Pressure Humidity
    00:00 +22°C° 0 mm 3 mps 678 mmHg 23%
    01:00 +21°C° 0 mm 3 mps 677 mmHg 23%
    02:00 +20°C° 0 mm 2 mps 677 mmHg 24%
    03:00 +20°C° 0 mm 2 mps 676 mmHg 24%
    04:00 +19°C° 0 mm 2 mps 676 mmHg 25%
    05:00 +21°C° 0 mm 2 mps 677 mmHg 22%
    06:00 +24°C° 0 mm 2 mps 677 mmHg 18%
    07:00 +26°C° 0 mm 2 mps 678 mmHg 15%
    08:00 +29°C° 0 mm 2 mps 678 mmHg 13%
    09:00 +32°C° 0 mm 2 mps 679 mmHg 10%
    10:00 +36°C° 0 mm 2 mps 679 mmHg 8%
    11:00 +37°C° 0 mm 2 mps 679 mmHg 7%
    12:00 +38°C° 0 mm 2 mps 678 mmHg 6%
    13:00 +40°C° 0 mm 2 mps 678 mmHg 5%
    14:00 +40°C° 0 mm 3 mps 678 mmHg 5%
    15:00 +41°C° 0 mm 4 mps 678 mmHg 5%
    16:00 +40°C° 0 mm 5 mps 677 mmHg 5%
    17:00 +36°C° 0 mm 5 mps 677 mmHg 8%
    18:00 +32°C° 0 mm 4 mps 677 mmHg 10%
    19:00 +28°C° 0 mm 4 mps 676 mmHg 13%
    20:00 +26°C° 0 mm 3 mps 676 mmHg 13%
    21:00 +25°C° 0 mm 3 mps 676 mmHg 14%
    22:00 +24°C° 0 mm 2 mps 676 mmHg 15%
    23:00 +23°C° 0 mm 2 mps 676 mmHg 16%
    Show more